Location: Kuppenheim
(48.8299°N, 8.2568°E)
Time: 13:45:16
(UTC+00:00)

USA 307 - Pass Details

Date: 20 June 2021
Orbit: 565 x 576 km, 54.0° (Epoch: 17 July)

Event Time Altitude Azimuth Distance (km) Brightness Sun altitude
Exits shadow 00:37:18 22° 153° (SSE) 1,268 4.2 -16.1°
Maximum altitude 00:38:11 23° 134° (SE) 1,213 4.3 -16.1°
Drops below altitude 10° 00:41:35 10° 81° (E) 1,868 5.9 -15.9°
Sets 00:44:09 0° 67° (ENE) 2,767 7.0 -15.8°
